Regional Weather Roundup
Issued by NWS

Home | Current Version | Previous Version | Text Only | Print | Product List | Glossary Off
Versions: 1 2 3 4 5 6 7 8 9 10 11 12 13 14 15 16 17 18 19 20 21 22 23 24 25 26 27 28 29 30 31 32 33 34 35 36 37 38 39 40 41 42 43 44 45 46 47 48 49 50

000
ASUS43 KOAX 031302
RWRNE

WEATHER ROUNDUP FOR NEBRASKA
NATIONAL WEATHER SERVICE OMAHA NE
800 AM CDT FRI JUL 03 2015

NOTES: SATELLITE DATA IS BEING USED TO AUGMENT CLOUD COVER ABOVE
       12000 FEET.
       "FAIR" INDICATES FEW OR NO CLOUDS BELOW 12,000 FEET WITH NO
       SIGNIFICANT WEATHER AND/OR OBSTRUCTIONS TO VISIBILITY.

  * THESE STATIONS DO NOT REPORT WEATHER SUCH AS RAIN...SNOW OR FOG.

NEZ001>004-019>022-054>056-031400-
NEBRASKA PANHANDLE

CITY           SKY/WX    TMP DP  RH WIND       PRES   REMARKS
SCOTTSBLUFF    MOSUNNY   66  61  84 CALM      30.14R
ALLIANCE       MOSUNNY   61  59  93 W6        30.13R
CHADRON        SUNNY     60  57  89 CALM      30.11R
KIMBALL          N/A    N/A N/A N/A MISG        N/A
SIDNEY         PTSUNNY   63  61  93 NW3       30.16S
$$

NEZ057>060-069>072-079>082-031400-
SOUTHWEST NEBRASKA

CITY           SKY/WX    TMP DP  RH WIND       PRES   REMARKS
NORTH PLATTE   SUNNY     62  58  86 CALM      30.09R
IMPERIAL       MOSUNNY   66  58  75 N3        30.10S
LEXINGTON      CLOUDY    64  64  97 N3        30.07R FOG
MCCOOK         SUNNY     63  60  90 SW3       30.07R FOG
$$

NEZ005>010-023>029-035>040-094-031400-
NORTH CENTRAL NEBRASKA

CITY           SKY/WX    TMP DP  RH WIND       PRES   REMARKS
VALENTINE      SUNNY     61  59  93 W3        30.07R
AINSWORTH      SUNNY     62  62 100 CALM      30.07S
BROKEN BOW     PTSUNNY   65  61  87 NW5       30.06S
O`NEILL        FOG       62  61  99 SW5       30.05S VSB<1/4
ORD            CLOUDY    63  60  90 CALM      30.04S
$$

NEZ041-046>049-061>064-073>077-083>087-031400-
SOUTH CENTRAL NEBRASKA

CITY           SKY/WX    TMP DP  RH WIND       PRES   REMARKS
GRAND ISLAND   CLOUDY    65  62  90 N7        30.05R FOG
AURORA         CLOUDY    64  64 100 NE8       30.03R FOG
HASTINGS       CLOUDY    66  63  90 NE8       30.04R FOG
KEARNEY *      CLOUDY    64  57  77 N7        30.05S
$$

NEZ011>018-030>034-042>045-031400-
NORTHEAST NEBRASKA

CITY           SKY/WX    TMP DP  RH WIND       PRES   REMARKS
NORFOLK        CLOUDY    65  63  93 CALM      30.02S FOG
COLUMBUS *     CLOUDY    63  57  82 CALM      30.03S
FREMONT        SUNNY     62  55  77 CALM      30.03R
TEKAMAH        SUNNY     60  58  92 N5        30.02R
$$

NEZ050>053-065>068-078-088>093-031400-
SOUTHEAST NEBRASKA

CITY           SKY/WX    TMP DP  RH WIND       PRES   REMARKS
LINCOLN        CLOUDY    64  58  80 NE7       30.02R
OMAHA EPPLEY   SUNNY     60  57  89 N5        30.01S
FALLS CITY     CLOUDY    65  60  84 NE6       29.98R
PLATTSMOUTH    SUNNY     61  55  82 CALM      30.01S
$$

NEZ044-045-051>053-067-031400-
OMAHA AREA

CITY           SKY/WX    TMP DP  RH WIND       PRES   REMARKS
OMAHA EPPLEY   SUNNY     60  57  89 N5        30.01S
FREMONT        SUNNY     62  55  77 CALM      30.03R
MILLARD        SUNNY     62  56  81 CALM      30.01S
OFFUTT AFB     SUNNY     62  56  80 CALM      30.00S
PLATTSMOUTH    SUNNY     61  55  82 CALM      30.01S
$$


USA.gov is the U.S. government's official web portal to all federal, state and local government web resources and services.